Regional Weather Roundup
Issued by NWS Newport/Morehead, NC

Current Version | Previous Version | Text Only | Print | Product List | Glossary On
Versions: 1 2 3 4 5 6 7 8 9 10 11 12 13 14 15 16 17 18 19 20 21 22 23 24 25 26 27 28 29 30 31 32 33 34 35 36 37 38 39 40 41 42 43 44 45 46 47 48 49 50
000
ASUS42 KMHX 020325
RWRMHX
WEATHER ROUNDUP FOR EASTERN NORTH CAROLINA
NATIONAL WEATHER SERVICE NEWPORT/MOREHEAD CITY NC
1100 PM EDT MON JUN 01 2015

NOTE: "FAIR" INDICATES FEW OR NO CLOUDS BELOW 12,000 FEET
WITH NO SIGNIFICANT WEATHER AND/OR OBSTRUCTIONS TO VISIBILITY

NCZ015>017-031-032-045>047-102-103-020400-
NORTH COAST

CITY           SKY/WX    TMP DP  RH WIND       PRES   REMARKS
EDENTON        CLEAR     75  68  79 S8        30.05S
ELIZABETH CITY CLEAR     75  67  76 S8        30.06R
KITTY HAWK     CLEAR     76  68  75 S7        30.04S
MANTEO         CLEAR     76  69  80 SW12      30.06S

$$

NCZ045>047-081-094-103-104-020400-
CENTRAL COAST

CITY           SKY/WX    TMP DP  RH WIND       PRES   REMARKS
FRISCO         CLEAR     76  68  76 S13       30.06F
SWANQUARTER      N/A     77 N/A N/A S14G20    30.03S

$$

NCZ095-097-098-100-101-020400-
SOUTHERN COAST

CITY           SKY/WX    TMP DP  RH WIND       PRES   REMARKS
BEAUFORT       CLEAR     76  69  79 S10       30.07R
CEDAR ISLAND     N/A     73 N/A N/A S3        30.09S
JACKSONVILLE   CLEAR     73  69  87 SW3       30.05R
PINEY ISLAND   CLEAR    N/A N/A N/A S6        30.06S
WILMINGTON     PTCLDY    74  69  85 S3        30.06R


$$

NCZ011>013-027>030-043-044-078>080-089-090>093-098-020400-
COASTAL PLAIN

CITY           SKY/WX    TMP DP  RH WIND       PRES   REMARKS
AHOSKIE        MOCLDY    75  65  70 S5        30.04S
CLINTON        MOCLDY    75  70  84 S5        30.06S
ELIZABETHTOWN  CLOUDY    75  68  78 S3        30.06S
GOLDSBORO      CLEAR     75  68  78 S1        30.03R
GREENVILLE     CLEAR     75  68  78 SW9       30.07R
HAVELOCK       CLEAR     73  66  78 S3        30.07S
KENANSVILLE    PTCLDY    72  66  82 CALM      30.07R
KINSTON        CLEAR     74  67  80 S7        30.06S
NEW BERN       CLEAR     72  67  84 S3        30.06F
RICHLANDS      CLEAR     70  64  83 SW3       30.07R
ROCKY MOUNT    PTCLDY    71  71 100 CALM      30.04R FOG
WASHINGTON     CLEAR     73  67  79 SW6       30.06S
WHITEVILLE     MOCLDY    74  69  84 CALM      30.06R

$$

AMZ130-135-150-152-154-156-158-170-250-252-270-ANZ085-086-088-633-658-670-020400-
MARINE OBSERVATIONS

STATION/POSITION TIME  TEMP    WIND        PRES    WAVE   SWELL
                       AIR SEA DIR/SP/G            HT/PER HT/PER
                 (UTC) (F)     (DEG/KT/KT) (MB)    (FT/S) (FT/S)
CHESAPEAKE LIGHT 0300   71     190/ 21/ 22 1017.6
64 E VA BEACH    0250   74 72  180/ 10/ 12 1017.2    3/ 8   3/ 8
DUCK             0300   76 58  210/  9/ 14 1016.7
2 E DUCK         0211      66                N/A     3/ 9
OREGON INLET     0300   76 80  180/ 13/ 16 1017.8
13E OREGON INLT  0200      77                N/A     3/ 8
HATTERAS CG      0300   77 81  190/  5/  9 1017.6
DIAMOND BUOY     0250   78 79  190/ 14/ 16 1018.1    3/ 9   3/ 9
CAPE LOOKOUT     0300   76     190/  8/ 10 1017.9
BEAUFORT LAB     0300   77 78  200/ 10/ 13 1017.3
30 SE NEW RVR IN NOT AVBL
27 SE WRIGHTSVLE 0300      77  200/  8/  8   N/A
5 SE WRIGHTSVLE  0208   78 79  200/ 12/ 16 1017.6
225 S CAPE HAT   0250   76 77     CALM     1019.0    4/ 8   3/ 8
41 SE CHARLESTON 0250   80 80  210/ 10/ 10 1017.7    3/ 9   3/ 9

$$



USA.gov is the U.S. government's official web portal to all federal, state and local government web resources and services.